Regional Weather Roundup
Issued by NWS

Home | Current Version | Previous Version | Text Only | Print | Product List | Glossary On
Versions: 1 2 3 4 5 6 7 8 9 10 11 12 13 14 15 16 17 18 19 20 21 22 23 24 25 26 27 28 29 30 31 32 33 34 35 36 37 38 39 40 41 42 43 44 45 46 47 48
000
ASUS42 KKEY 241110
RWRKEY

FLORIDA REGIONAL WEATHER ROUNDUP FOR THE FLORIDA KEYS
NATIONAL WEATHER SERVICE KEY WEST FLORIDA
700 AM EDT TUE MAY 24 2016

...SOUTH FLORIDA AND THE KEYS...

CITY           SKY/WX    TMP DP  RH WIND       PRES   REMARKS
FORT MYERS     CLEAR     70  63  78 CALM      30.02R
SW REGIONAL AP CLEAR     70  65  84 N5        30.03R
NAPLES         CLEAR     74  68  81 N5        30.02R
MIAMI          PTCLDY    77  70  79 CALM      30.02R
WEST KENDALL   CLEAR     73  69  87 CALM      30.02R
HOMESTEAD      CLEAR     74  69  83 CALM      30.02R
MARATHON       PTCLDY    77  69  76 CALM      30.01R
BOCA CHICA NAS PTCLDY    78  72  81 NE3       30.01R
KEY WEST INTL  PTCLDY    77  75  93 E5        30.01R

...INTERNATIONAL WEATHER...

CITY           SKY/WX    TMP DP  RH WIND       PRES   REMARKS
NASSAU BAHAMAS MOCLDY    75  68  78 CALM      30.04R
CANCUN MEXICO  PTCLDY    82  77  83 E8        29.95R HX  91
COZUMEL MEXICO PTCLDY    73  73 100 SE3       29.95R

ADJACENT COASTAL WATERS...

STATION/POSITION TIME  SKY/WX   TEMP    WIND        PRES    WAVE
                                AIR SEA DIR/SP/G            HT/PER
                 (UTC)          (F)     (DEG/KT/KT) (MB)    (FT/S)
PULASKI SHOAL LI 1100            80      80/  7/  9 1016.2R
SAND KEY         1050            81     120/  7/  9 1016.5R
SOMBRERO KEY     NOT AVBL
LONG KEY         1000            82 85  100/  5/  5 1016.1R
MOLASSES REEF    NOT AVBL
FOWEY ROCKS      1100            80 83  340/  5/  6 1017.2R

$$



USA.gov is the U.S. government's official web portal to all federal, state and local government web resources and services.